Gainesville, GA

4:11 PM EDT on April 23, 2017 (GMT -0400)
Gilmer Memorial

Weather History for KGVL - March, 2014

Change the Weather History Date:

Tuesday, March 25, 2014

  Actual Average Record
Temperature  
Mean Temperature 41 °F 55 °F  
Max Temperature 50 °F 65 °F 87 °F (2007)
Min Temperature 32 °F 45 °F 23 °F (1956)
Degree Days  
Heating Degree Days 24 10  
Month to date heating degree days 377 331  
Since 1 July heating degree days 3046 2795  
Cooling Degree Days 0 0  
Month to date cooling degree days 0 0  
Year to date cooling degree days 0 0  
Moisture  
Dew Point 26 °F    
Average Humidity 58    
Maximum Humidity 86    
Minimum Humidity 29    
Precipitation  
Precipitation 0.03 in 0.16 in 2.29 in (1936)
Month to date precipitation 2.82 4.51  
Year to date precipitation 8.81 14.41  
Snow  
Snow 0.00 in - - ()
Month to date snowfall 0.0  
Since 1 July snowfall T  
Snow Depth -    
Sea Level Pressure  
Sea Level Pressure 29.97 in    
Wind  
Wind Speed 14 mph (NW)    
Max Wind Speed 30 mph    
Max Gust Speed 42 mph    
Visibility 9 miles    
Events Rain    
T = Trace of Precipitation, MM = Missing Value Source: NWS Daily Summary

Daily Weather History Graph

Daily Weather History Graph

Search for Another Location

Airport or City:

Trip Planner

Search our weather history database for the weather conditions in past years. The results will help you decide how hot, cold, wet, or windy it might be!

Date:

Astronomy

Mar. 25, 2014 Rise Set
Actual Time 7:32 AM EDT 7:50 PM EDT
Civil Twilight 7:07 AM EDT 8:15 PM EDT
Nautical Twilight 6:37 AM EDT 8:45 PM EDT
Astronomical Twilight 6:07 AM EDT 9:15 PM EDT
Moon 3:39 AM EDT (3/25) 2:32 PM EDT (3/25)
Length of Visible Light 13h 08m
Length of Day
12h 18m
Waning Crescent, 32% of the Moon is Illuminated
Mar 25
Waning Crescent
Mar 30
New
Apr 7
First Quarter
Apr 15
Full
Apr 22
Last Quarter

Hourly Weather History & Observations

Time (EDT) Temp. Windchill Dew Point Humidity Pressure Visibility Wind Dir Wind Speed Gust Speed Precip Events Conditions
12:53 AM 48.0 °F - 30.0 °F 50% 29.98 in 10.0 mi SE 4.6 mph - N/A   Overcast
1:53 AM 46.9 °F - 30.0 °F 52% 29.96 in 10.0 mi ESE 3.5 mph - N/A   Overcast
2:53 AM 46.9 °F - 30.0 °F 52% 29.92 in 10.0 mi ESE 5.8 mph - N/A   Overcast
3:53 AM 46.0 °F 44.8 °F 33.1 °F 61% 29.91 in 10.0 mi NNE 3.5 mph - 0.00 in Rain Light Rain
4:53 AM 43.0 °F 40.3 °F 37.9 °F 82% 29.90 in 10.0 mi NE 4.6 mph - 0.03 in   Overcast
5:53 AM 43.0 °F 41.3 °F 37.9 °F 82% 29.90 in 9.0 mi NNE 3.5 mph - 0.00 in   Overcast
6:18 AM 42.1 °F 39.2 °F 37.0 °F 82% 29.89 in 7.0 mi NE 4.6 mph - N/A   Mostly Cloudy
6:53 AM 41.0 °F 38.0 °F 37.0 °F 86% 29.89 in 8.0 mi East 4.6 mph - N/A   Mostly Cloudy
7:53 AM 39.9 °F - 36.0 °F 86% 29.90 in 7.0 mi Calm Calm - N/A   Clear
8:41 AM 42.1 °F 38.4 °F 37.9 °F 85% 29.92 in 6.0 mi WNW 5.8 mph - N/A   Mostly Cloudy
8:53 AM 41.0 °F 38.0 °F 37.9 °F 89% 29.91 in 6.0 mi West 4.6 mph - N/A   Mostly Cloudy
9:09 AM 43.0 °F 40.3 °F 39.0 °F 86% 29.92 in 7.0 mi NW 4.6 mph - N/A   Scattered Clouds
9:53 AM 46.0 °F 41.0 °F 36.0 °F 68% 29.91 in 10.0 mi WNW 10.4 mph - N/A   Clear
10:53 AM 48.0 °F - 24.1 °F 39% 29.90 in 10.0 mi WNW 16.1 mph - N/A   Clear
11:53 AM 48.9 °F - 19.0 °F 31% 29.93 in 10.0 mi NW 23.0 mph 32.2 mph N/A   Scattered Clouds
12:53 PM 48.9 °F - 18.0 °F 29% 29.93 in 10.0 mi WNW 25.3 mph 35.7 mph N/A   Scattered Clouds
1:53 PM 48.0 °F - 19.9 °F 33% 29.94 in 10.0 mi West 23.0 mph 40.3 mph N/A   Partly Cloudy
2:53 PM 44.1 °F 35.2 °F 19.0 °F 37% 29.95 in 10.0 mi West 23.0 mph 35.7 mph N/A   Mostly Cloudy
3:53 PM 42.1 °F 32.6 °F 15.1 °F 34% 29.96 in 10.0 mi WNW 23.0 mph 33.4 mph N/A   Mostly Cloudy
4:53 PM 43.0 °F 34.2 °F 16.0 °F 34% 29.99 in 10.0 mi NW 20.7 mph 40.3 mph N/A   Partly Cloudy
5:53 PM 41.0 °F 31.4 °F 14.0 °F 33% 30.01 in 10.0 mi WNW 21.9 mph 35.7 mph N/A   Partly Cloudy
6:53 PM 41.0 °F 33.1 °F 17.1 °F 38% 30.03 in 10.0 mi NW 15.0 mph 23.0 mph N/A   Mostly Cloudy
7:53 PM 37.9 °F 28.5 °F 19.0 °F 47% 30.07 in 10.0 mi WNW 17.3 mph 24.2 mph N/A   Clear
8:53 PM 36.0 °F 26.3 °F 18.0 °F 48% 30.09 in 10.0 mi NW 16.1 mph 24.2 mph N/A   Partly Cloudy
9:53 PM 35.1 °F 25.5 °F 17.1 °F 48% 30.11 in 10.0 mi NW 15.0 mph - N/A   Clear
10:53 PM 34.0 °F 25.5 °F 15.1 °F 46% 30.14 in 10.0 mi NW 11.5 mph - N/A   Clear
11:53 PM 34.0 °F 24.2 °F 9.0 °F 35% 30.14 in 10.0 mi NW 15.0 mph 31.1 mph N/A   Clear